EA3KZ-1 Weather Reports


time (UTC)temp
C
wind
direction
speed
KPH
gust
KPH
rain 1hr
cm
rain 24hr
cm
rain mn
cm
humidity
%
barometer
mb
20260902100539 30 71 4.8 11.3 0.00 0.00 0.00 43 1018.0
20260902095536 29 350 4.8 11.3 0.00 0.00 0.00 43 1018.0
20260902094533 29 140 4.8 12.9 0.00 0.00 0.00 47 1018.0
20260902093531 28 45 4.8 12.9 0.00 0.00 0.00 48 1018.0
20260902092528 28 53 3.2 11.3 0.00 0.00 0.00 50 1018.0
20260902091525 28 61 3.2 12.9 0.00 0.00 0.00 50 1017.8
20260902090523 28 33 1.6 6.4 0.00 0.00 0.00 51 1017.8
20260902085520 28 244 1.6 6.4 0.00 0.00 0.00 54 1017.8
20260902084517 27 50 3.2 11.3 0.00 0.00 0.00 57 1017.7
20260902083515 27 42 6.4 11.3 0.00 0.00 0.00 59 1017.7
20260902082613 27 57 1.6 6.4 0.00 0.00 0.00 62 1017.6
20260902081610 27 63 0.0 3.2 0.00 0.00 0.00 62 1017.5
20260902080607 26 112 1.6 6.4 0.00 0.00 0.00 63 1017.4
20260902075605 26 107 1.6 3.2 0.00 0.00 0.00 65 1017.4
20260902074602 26 90 0.0 3.2 0.00 0.00 0.00 65 1017.2
20260902073600 26 100 0.0 3.2 0.00 0.00 0.00 64 1017.3
20260902072557 25 0.0 3.2 0.00 0.00 0.00 66 1017.3
20260902071555 25 203 0.0 3.2 0.00 0.00 0.00 67 1017.3
20260902070552 24 248 0.0 3.2 0.00 0.00 0.00 70 1017.1
20260902065549 23 242 1.6 3.2 0.00 0.00 0.00 72 1017.1
20260902064547 23 234 1.6 3.2 0.00 0.00 0.00 72 1017.0
20260902063544 22 248 0.0 3.2 0.00 0.00 0.00 73 1016.8
20260902062542 22 158 0.0 3.2 0.00 0.00 0.00 74 1016.7
20260902061539 22 248 0.0 3.2 0.00 0.00 0.00 76 1016.6
20260902060536 21 189 1.6 3.2 0.00 0.00 0.00 78 1016.6
20260902055534 21 0.0 0.0 0.00 0.00 0.00 80 1016.4
20260902054531 21 0.0 0.0 0.00 0.00 0.00 81 1016.4
20260902053529 21 0.0 3.2 0.00 0.00 0.00 83 1016.4
20260902052526 21 288 1.6 3.2 0.00 0.00 0.00 83 1016.4
20260902051523 21 270 0.0 3.2 0.00 0.00 0.00 83 1016.4
20260902050521 21 232 0.0 3.2 0.00 0.00 0.00 83 1016.1
20260902045518 21 0.0 3.2 0.00 0.00 0.00 83 1016.1
20260902044516 21 0.0 0.0 0.00 0.00 0.00 83 1016.0
20260902043613 21 0.0 0.0 0.00 0.00 0.00 82 1016.2
20260902042611 21 248 0.0 3.2 0.00 0.00 0.00 83 1016.1
20260902041608 21 203 0.0 3.2 0.00 0.00 0.00 83 1016.0
20260902040605 21 0.0 0.0 0.00 0.00 0.00 83 1016.3
20260902035603 21 248 0.0 3.2 0.00 0.00 0.00 84 1016.3
20260902034600 21 0.0 0.0 0.00 0.00 0.00 85 1016.3
20260902033558 21 0.0 3.2 0.00 0.00 0.00 85 1016.3
20260902032555 21 0.0 0.0 0.00 0.00 0.00 84 1016.5
20260902031552 21 0.0 0.0 0.00 0.00 0.00 84 1016.5
20260902030550 21 277 0.0 3.2 0.00 0.00 0.00 84 1016.3
20260902025547 21 0.0 0.0 0.00 0.00 0.00 84 1016.3
20260902024545 21 0.0 0.0 0.00 0.00 0.00 85 1016.5
20260902023542 21 0.0 3.2 0.00 0.00 0.00 85 1016.3
20260902022539 21 225 4.8 6.4 0.00 0.00 0.00 86 1016.5
20260902021537 21 192 3.2 6.4 0.00 0.00 0.00 86 1016.5
20260902020534 21 225 0.0 3.2 0.00 0.00 0.00 86 1016.6
20260902015532 21 230 6.4 6.4 0.00 0.00 0.00 87 1016.7
20260902014529 21 230 4.8 6.4 0.00 0.00 0.00 87 1016.6
20260902013526 21 237 6.4 11.3 0.00 0.00 0.00 87 1016.9
20260902012524 21 227 1.6 6.4 0.00 0.00 0.00 86 1016.9
20260902011521 21 191 0.0 3.2 0.00 0.00 0.00 87 1016.9
20260902010519 21 240 3.2 6.4 0.00 0.00 0.00 87 1016.9
20260902005516 21 221 4.8 6.4 0.00 0.00 0.00 87 1017.1
20260902004614 21 222 4.8 6.4 0.00 0.00 0.00 87 1017.2
20260902003611 21 236 6.4 6.4 0.00 0.00 0.00 86 1017.0
20260902002608 21 209 3.2 6.4 0.00 0.00 0.00 86 1017.0
20260902001606 21 218 1.6 6.4 0.00 0.00 0.00 86 1017.2
20260902000603 21 225 3.2 3.2 0.00 0.00 0.00 86 1017.1
20260901235601 21 235 4.8 9.7 0.00 0.00 0.00 85 1017.0
20260901234558 21 258 4.8 9.7 0.00 0.00 0.00 85 1017.0
20260901233555 22 228 3.2 6.4 0.00 0.00 0.00 84 1017.0
20260901232553 22 245 1.6 6.4 0.00 0.00 0.00 84 1017.1
20260901231550 22 215 3.2 6.4 0.00 0.00 0.00 84 1017.0
20260901230548 22 222 3.2 6.4 0.00 0.00 0.00 83 1017.0
20260901225545 22 213 3.2 6.4 0.00 0.00 0.00 83 1017.0
20260901224543 22 199 3.2 6.4 0.00 0.00 0.00 83 1016.7
20260901223540 22 220 3.2 9.7 0.00 0.00 0.00 82 1016.7
20260901222537 22 229 3.2 6.4 0.00 0.00 0.00 82 1016.6
20260901221535 22 225 6.4 11.3 0.00 0.00 0.00 82 1016.7
20260901220532 22 214 4.8 9.7 0.00 0.00 0.00 81 1016.5
20260901215530 22 238 4.8 9.7 0.00 0.00 0.00 81 1016.5
20260901214527 22 214 3.2 6.4 0.00 0.00 0.00 80 1016.5
20260901213524 22 202 4.8 6.4 0.00 0.00 0.00 80 1016.5
20260901212522 22 217 6.4 9.7 0.00 0.00 0.00 80 1016.2
20260901211519 22 213 3.2 3.2 0.00 0.00 0.00 79 1016.0
20260901210517 22 243 3.2 6.4 0.00 0.00 0.00 79 1016.1
20260901205614 22 230 4.8 6.4 0.00 0.00 0.00 79 1016.0
20260901204612 22 202 3.2 6.4 0.00 0.00 0.00 78 1016.1
20260901203609 22 180 3.2 6.4 0.00 0.00 0.00 77 1016.0
20260901202606 22 229 3.2 6.4 0.00 0.00 0.00 77 1015.8
20260901201604 22 243 3.2 6.4 0.00 0.00 0.00 77 1015.6
20260901200601 23 205 1.6 6.4 0.00 0.00 0.00 76 1015.7
20260901195559 23 211 1.6 6.4 0.00 0.00 0.00 75 1015.6
20260901194556 23 237 3.2 6.4 0.00 0.00 0.00 75 1015.4
20260901193553 23 235 1.6 6.4 0.00 0.00 0.00 74 1015.5
20260901192551 23 201 3.2 6.4 0.00 0.00 0.00 74 1015.5
20260901191548 24 188 3.2 6.4 0.00 0.00 0.00 73 1015.3
20260901190546 24 167 4.8 6.4 0.00 0.00 0.00 73 1015.1
20260901185543 24 121 4.8 9.7 0.00 0.00 0.00 73 1015.1
20260901184540 24 125 4.8 9.7 0.00 0.00 0.00 72 1015.0
20260901183538 24 183 4.8 6.4 0.00 0.00 0.00 72 1014.8
20260901182535 24 158 4.8 9.7 0.00 0.00 0.00 72 1014.7
20260901181533 25 145 3.2 6.4 0.00 0.00 0.00 71 1014.9
20260901180530 25 127 3.2 6.4 0.00 0.00 0.00 70 1015.1
20260901175527 25 187 4.8 11.3 0.00 0.00 0.00 70 1015.2
20260901174525 25 129 4.8 12.9 0.00 0.00 0.00 70 1015.5
20260901173522 25 164 4.8 12.9 0.00 0.00 0.00 69 1015.5
20260901172520 25 144 6.4 17.7 0.00 0.00 0.00 68 1015.6
20260901171517 25 125 9.7 20.9 0.00 0.00 0.00 68 1015.8
20260901170515 25 143 6.4 12.9 0.00 0.00 0.00 67 1015.6
20260901165612 25 72 6.4 14.5 0.00 0.00 0.00 67 1015.5
20260901164609 26 74 6.4 14.5 0.00 0.00 0.00 66 1015.5
20260901163607 26 109 4.8 12.9 0.00 0.00 0.00 66 1015.7
20260901162604 26 113 6.4 14.5 0.00 0.00 0.00 66 1015.8
20260901161602 26 118 3.2 12.9 0.00 0.00 0.00 65 1015.9
20260901160559 27 104 6.4 17.7 0.00 0.00 0.00 64 1015.8
20260901155557 27 75 4.8 9.7 0.00 0.00 0.00 62 1015.6
20260901154554 27 96 4.8 12.9 0.00 0.00 0.00 60 1015.6
20260901153551 27 111 4.8 12.9 0.00 0.00 0.00 61 1015.7
20260901152549 27 95 6.4 14.5 0.00 0.00 0.00 62 1015.9
20260901151546 27 123 6.4 17.7 0.00 0.00 0.00 63 1015.9
20260901150544 26 85 6.4 12.9 0.00 0.00 0.00 64 1015.9
20260901145541 26 109 9.7 20.9 0.00 0.00 0.00 64 1016.3
20260901144538 27 95 4.8 14.5 0.00 0.00 0.00 59 1016.0
20260901143536 27 119 4.8 9.7 0.00 0.00 0.00 59 1016.0
20260901142533 27 114 8.0 17.7 0.00 0.00 0.00 59 1016.3
20260901141531 27 114 4.8 12.9 0.00 0.00 0.00 58 1016.1
20260901140528 27 94 4.8 11.3 0.00 0.00 0.00 59 1015.8
20260901135525 27 129 6.4 17.7 0.00 0.00 0.00 59 1016.3
20260901134523 27 125 4.8 11.3 0.00 0.00 0.00 60 1016.3
20260901133521 27 176 6.4 12.9 0.00 0.00 0.00 60 1016.4
20260901132518 27 113 4.8 9.7 0.00 0.00 0.00 61 1016.6
20260901131515 28 181 8.0 17.7 0.00 0.00 0.00 58 1016.7
20260901130613 28 122 8.0 14.5 0.00 0.00 0.00 60 1016.7
20260901125610 28 61 4.8 20.9 0.00 0.00 0.00 61 1016.9
20260901124607 28 171 4.8 11.3 0.00 0.00 0.00 62 1016.8
20260901123605 27 88 6.4 17.7 0.00 0.00 0.00 63 1016.8
20260901122602 27 77 4.8 11.3 0.00 0.00 0.00 62 1017.0
20260901121600 27 74 8.0 17.7 0.00 0.00 0.00 62 1017.0
20260901120557 28 180 4.8 14.5 0.00 0.00 0.00 61 1017.1
20260901115554 27 110 4.8 12.9 0.00 0.00 0.00 62 1017.1
20260901114552 27 139 8.0 17.7 0.00 0.00 0.00 63 1017.1
20260901113549 27 98 6.4 17.7 0.00 0.00 0.00 61 1017.1
20260901112547 28 83 4.8 17.7 0.00 0.00 0.00 58 1017.2
20260901111544 27 121 6.4 14.5 0.00 0.00 0.00 59 1017.3
20260901110541 27 95 6.4 17.7 0.00 0.00 0.00 58 1017.3
20260901105539 28 127 4.8 11.3 0.00 0.00 0.00 56 1017.3
20260901104536 28 127 3.2 12.9 0.00 0.00 0.00 57 1017.2
20260901103534 27 111 4.8 12.9 0.00 0.00 0.00 56 1017.4
20260901102531 28 109 6.4 14.5 0.00 0.00 0.00 55 1017.4
20260901101529 27 98 4.8 12.9 0.00 0.00 0.00 56 1017.5